• In Belarus
  • List of Countries
  • For 7 days
  • Water Temperature
  • Satellite Maps
  • Weather Map
  • Weather Widgets
  • user-avatar
    Login

    Hourly Weather Borodyanka

    Today, 23 October, Monday

    Time Temperature Precipitation Wind Pressure Humidity
    00:00 +2°C° 0 mm 2 mps 752 mmHg 74%
    01:00 +2°C° 0 mm 2 mps 752 mmHg 75%
    02:00 +1°C° 0 mm 2 mps 752 mmHg 77%
    03:00 +1°C° 0 mm 2 mps 752 mmHg 78%
    04:00 +1°C° 0 mm 2 mps 752 mmHg 79%
    05:00 -1°C° 0 mm 2 mps 752 mmHg 80%
    06:00 0°C° 0 mm 3 mps 751 mmHg 78%
    07:00 0°C° 0 mm 3 mps 751 mmHg 76%
    08:00 0°C° 0 mm 4 mps 751 mmHg 73%
    09:00 +1°C° 0 mm 4 mps 751 mmHg 68%
    10:00 +4°C° 0 mm 4 mps 751 mmHg 64%
    11:00 +5°C° 0 mm 4 mps 751 mmHg 60%
    12:00 +5°C° 0 mm 4 mps 751 mmHg 58%
    13:00 +6°C° 0 mm 4 mps 751 mmHg 56%
    14:00 +6°C° 0 mm 4 mps 751 mmHg 54%
    15:00 +6°C° 0 mm 4 mps 751 mmHg 56%
    16:00 +5°C° 0 mm 4 mps 751 mmHg 58%
    17:00 +5°C° 0 mm 4 mps 751 mmHg 59%
    18:00 +4°C° 0 mm 4 mps 751 mmHg 59%
    19:00 +4°C° 0 mm 4 mps 751 mmHg 59%
    20:00 +4°C° 0 mm 4 mps 751 mmHg 59%
    21:00 +4°C° 0 mm 4 mps 751 mmHg 59%
    22:00 +4°C° 0 mm 4 mps 752 mmHg 59%
    23:00 +4°C° 0 mm 4 mps 752 mmHg 58%

    Tomorrow, 24 October, Tuesday

    Time Temperature Precipitation Wind Pressure Humidity
    00:00 +4°C° 0 mm 4 mps 752 mmHg 58%
    01:00 +3°C° 0 mm 4 mps 752 mmHg 58%
    02:00 +3°C° 0 mm 4 mps 752 mmHg 57%
    03:00 +3°C° 0 mm 4 mps 753 mmHg 57%
    04:00 +3°C° 0 mm 4 mps 753 mmHg 57%
    05:00 +1°C° 0 mm 4 mps 753 mmHg 57%
    06:00 +3°C° 0 mm 4 mps 753 mmHg 57%
    07:00 +3°C° 0 mm 4 mps 754 mmHg 56%
    08:00 +2°C° 0 mm 5 mps 754 mmHg 55%
    09:00 +3°C° 0 mm 5 mps 755 mmHg 54%
    10:00 +3°C° 0 mm 5 mps 755 mmHg 52%
    11:00 +5°C° 0 mm 5 mps 756 mmHg 50%
    12:00 +5°C° 0 mm 5 mps 756 mmHg 50%
    13:00 +5°C° 0 mm 5 mps 756 mmHg 49%
    14:00 +6°C° 0 mm 5 mps 756 mmHg 48%
    15:00 +5°C° 0 mm 4 mps 756 mmHg 50%
    16:00 +4°C° 0 mm 4 mps 756 mmHg 53%
    17:00 +3°C° 0 mm 3 mps 757 mmHg 56%
    18:00 +3°C° 0 mm 3 mps 757 mmHg 58%
    19:00 +2°C° 0 mm 3 mps 758 mmHg 59%
    20:00 +1°C° 0 mm 3 mps 758 mmHg 61%
    21:00 +1°C° 0 mm 3 mps 758 mmHg 64%
    22:00 +1°C° 0 mm 3 mps 759 mmHg 66%
    23:00 0°C° 0 mm 3 mps 759 mmHg 68%

    Day after tomorrow, 25 October, Wednesday

    Time Temperature Precipitation Wind Pressure Humidity
    00:00 0°C° 0 mm 3 mps 759 mmHg 70%
    01:00 -1°C° 0 mm 3 mps 759 mmHg 72%
    02:00 -1°C° 0 mm 2 mps 759 mmHg 74%
    03:00 -1°C° 0 mm 2 mps 759 mmHg 75%
    04:00 -2°C° 0 mm 2 mps 759 mmHg 77%
    05:00 -2°C° 0 mm 2 mps 759 mmHg 78%
    06:00 -2°C° 0 mm 3 mps 760 mmHg 75%
    07:00 -1°C° 0 mm 3 mps 760 mmHg 73%
    08:00 -1°C° 0 mm 3 mps 760 mmHg 70%
    09:00 +1°C° 0 mm 3 mps 760 mmHg 64%
    10:00 +2°C° 0 mm 3 mps 760 mmHg 57%
    11:00 +4°C° 0 mm 3 mps 760 mmHg 51%
    12:00 +5°C° 0 mm 3 mps 760 mmHg 49%
    13:00 +5°C° 0 mm 3 mps 760 mmHg 47%
    14:00 +7°C° 0 mm 3 mps 759 mmHg 45%
    15:00 +6°C° 0 mm 2 mps 759 mmHg 50%
    16:00 +4°C° 0 mm 2 mps 759 mmHg 55%
    17:00 +3°C° 0 mm 2 mps 759 mmHg 60%
    18:00 +3°C° 0 mm 2 mps 759 mmHg 62%
    19:00 +2°C° 0 mm 2 mps 759 mmHg 64%
    20:00 +2°C° 0 mm 2 mps 759 mmHg 66%
    21:00 +2°C° 0 mm 2 mps 759 mmHg 66%
    22:00 +2°C° 0 mm 2 mps 758 mmHg 66%
    23:00 +1°C° 0 mm 3 mps 758 mmHg 65%

    26 October, Thursday

    Time Temperature Precipitation Wind Pressure Humidity
    00:00 +2°C° 0.1 mm 3 mps 758 mmHg 65%
    01:00 +2°C° 0.1 mm 3 mps 757 mmHg 64%
    02:00 +2°C° 0.1 mm 3 mps 757 mmHg 64%
    03:00 +3°C° 0 mm 4 mps 756 mmHg 63%
    04:00 +3°C° 0 mm 4 mps 756 mmHg 62%
    05:00 +2°C° 0 mm 5 mps 755 mmHg 61%
    06:00 +2°C° 0.4 mm 5 mps 755 mmHg 66%
    07:00 +2°C° 0.4 mm 5 mps 754 mmHg 71%
    08:00 +2°C° 0.4 mm 5 mps 754 mmHg 75%
    09:00 +4°C° 0.1 mm 4 mps 753 mmHg 77%
    10:00 +5°C° 0.1 mm 4 mps 753 mmHg 78%
    11:00 +6°C° 0.1 mm 4 mps 753 mmHg 80%
    12:00 +7°C° 0 mm 4 mps 753 mmHg 81%
    13:00 +8°C° 0 mm 4 mps 752 mmHg 82%
    14:00 +10°C° 0 mm 4 mps 752 mmHg 82%
    15:00 +10°C° 0 mm 4 mps 752 mmHg 85%
    16:00 +9°C° 0 mm 3 mps 752 mmHg 88%
    17:00 +9°C° 0 mm 3 mps 751 mmHg 90%
    18:00 +9°C° 0 mm 3 mps 751 mmHg 91%
    19:00 +9°C° 0 mm 3 mps 751 mmHg 91%
    20:00 +8°C° 0 mm 3 mps 751 mmHg 92%
    21:00 +8°C° 0 mm 3 mps 751 mmHg 92%
    22:00 +8°C° 0 mm 3 mps 750 mmHg 92%
    23:00 +8°C° 0 mm 3 mps 750 mmHg 92%

    27 October, Friday

    Time Temperature Precipitation Wind Pressure Humidity
    00:00 +8°C° 0 mm 3 mps 750 mmHg 92%
    01:00 +8°C° 0 mm 3 mps 750 mmHg 92%
    02:00 +8°C° 0 mm 3 mps 749 mmHg 92%
    03:00 +8°C° 0 mm 3 mps 749 mmHg 92%
    04:00 +8°C° 0 mm 3 mps 748 mmHg 93%
    05:00 +7°C° 0 mm 4 mps 748 mmHg 94%
    06:00 +7°C° 0 mm 4 mps 748 mmHg 92%
    07:00 +7°C° 0 mm 4 mps 747 mmHg 91%
    08:00 +7°C° 0 mm 4 mps 747 mmHg 90%
    09:00 +8°C° 0.1 mm 4 mps 747 mmHg 86%
    10:00 +10°C° 0.1 mm 4 mps 746 mmHg 82%
    11:00 +10°C° 0.1 mm 4 mps 746 mmHg 77%
    12:00 +11°C° 0.1 mm 4 mps 745 mmHg 75%
    13:00 +11°C° 0.1 mm 4 mps 745 mmHg 72%
    14:00 +12°C° 0.1 mm 4 mps 744 mmHg 69%
    15:00 +11°C° 0.3 mm 3 mps 744 mmHg 75%
    16:00 +10°C° 0.3 mm 3 mps 744 mmHg 81%
    17:00 +9°C° 0.3 mm 2 mps 743 mmHg 87%
    18:00 +9°C° 0.2 mm 2 mps 743 mmHg 89%
    19:00 +9°C° 0.2 mm 1 mps 743 mmHg 90%
    20:00 +9°C° 0.2 mm 1 mps 742 mmHg 92%
    21:00 +9°C° 0.2 mm 1 mps 742 mmHg 92%
    22:00 +9°C° 0.2 mm 1 mps 742 mmHg 93%
    23:00 +8°C° 0.2 mm 1 mps 741 mmHg 93%

    28 October, Saturday

    Time Temperature Precipitation Wind Pressure Humidity
    00:00 +8°C° 0.2 mm 1 mps 741 mmHg 94%
    01:00 +8°C° 0.2 mm 1 mps 741 mmHg 94%
    02:00 +8°C° 0.2 mm 1 mps 741 mmHg 94%
    03:00 +8°C° 0.2 mm 1 mps 741 mmHg 94%
    04:00 +6°C° 0.2 mm 2 mps 740 mmHg 93%
    05:00 +6°C° 0.2 mm 2 mps 740 mmHg 93%
    06:00 +6°C° 0 mm 2 mps 740 mmHg 92%
    07:00 +6°C° 0 mm 2 mps 740 mmHg 92%
    08:00 +6°C° 0 mm 2 mps 740 mmHg 91%
    09:00 +7°C° 0 mm 3 mps 740 mmHg 86%
    10:00 +8°C° 0 mm 3 mps 740 mmHg 81%
    11:00 +9°C° 0 mm 3 mps 740 mmHg 76%
    12:00 +9°C° 0.1 mm 3 mps 740 mmHg 74%
    13:00 +10°C° 0.1 mm 3 mps 740 mmHg 73%
    14:00 +10°C° 0.1 mm 3 mps 740 mmHg 71%
    15:00 +9°C° 0.1 mm 3 mps 740 mmHg 76%
    16:00 +8°C° 0.1 mm 3 mps 740 mmHg 80%
    17:00 +7°C° 0.1 mm 2 mps 740 mmHg 85%
    18:00 +7°C° 0.1 mm 3 mps 740 mmHg 85%
    19:00 +7°C° 0.1 mm 3 mps 741 mmHg 85%
    20:00 +6°C° 0.1 mm 4 mps 741 mmHg 86%
    21:00 +6°C° 0.1 mm 4 mps 741 mmHg 86%
    22:00 +5°C° 0.1 mm 4 mps 741 mmHg 86%
    23:00 +5°C° 0.1 mm 4 mps 741 mmHg 86%

    29 October, Sunday

    Time Temperature Precipitation Wind Pressure Humidity
    00:00 +5°C° 0.1 mm 4 mps 741 mmHg 86%
    01:00 +5°C° 0.1 mm 4 mps 742 mmHg 87%
    02:00 +4°C° 0.1 mm 4 mps 742 mmHg 87%
    03:00 +4°C° 0.1 mm 4 mps 742 mmHg 88%
    04:00 +4°C° 0.1 mm 4 mps 742 mmHg 89%
    05:00 +3°C° 0.1 mm 4 mps 742 mmHg 90%
    06:00 +3°C° 0.1 mm 3 mps 742 mmHg 90%
    07:00 +3°C° 0.1 mm 3 mps 742 mmHg 89%
    08:00 +3°C° 0.1 mm 3 mps 743 mmHg 89%
    09:00 +4°C° 0 mm 3 mps 743 mmHg 83%
    10:00 +5°C° 0 mm 3 mps 743 mmHg 77%
    11:00 +7°C° 0 mm 3 mps 743 mmHg 71%
    12:00 +8°C° 0 mm 3 mps 743 mmHg 68%
    13:00 +8°C° 0 mm 3 mps 743 mmHg 66%
    14:00 +8°C° 0 mm 2 mps 743 mmHg 64%
    15:00 +8°C° 0 mm 2 mps 743 mmHg 68%
    16:00 +7°C° 0 mm 2 mps 743 mmHg 73%
    17:00 +6°C° 0 mm 2 mps 743 mmHg 78%
    18:00 +5°C° 0 mm 2 mps 743 mmHg 80%
    19:00 +5°C° 0 mm 2 mps 744 mmHg 83%
    20:00 +4°C° 0 mm 2 mps 744 mmHg 85%
    21:00 +4°C° 0 mm 2 mps 744 mmHg 86%
    22:00 +3°C° 0 mm 2 mps 744 mmHg 88%
    23:00 +3°C° 0 mm 2 mps 744 mmHg 89%
    Show more